TimeEST,TemperatureF,Dew PointF,Humidity,Sea Level PressureIn,VisibilityMPH,Wind Direction,Wind SpeedMPH,Gust SpeedMPH,PrecipitationIn,Events,Conditions,WindDirDegrees,DateUTC
12:13 AM,41.0,36.0,82,30.33,-9999.0,SSW,10.4,-,N/A,,Overcast,210,2013-11-22 05:13:00
12:53 AM,39.9,37.0,89,30.35,-9999.0,SSW,6.9,-,N/A,,Overcast,200,2013-11-22 05:53:00
1:09 AM,39.9,37.0,89,30.29,-9999.0,SSW,5.8,-,N/A,,Overcast,200,2013-11-22 06:09:00
1:51 AM,39.2,37.4,93,30.28,-9999.0,South,5.8,-,N/A,,Overcast,190,2013-11-22 06:51:00
1:53 AM,39.9,37.9,93,30.32,-9999.0,SSW,8.1,-,N/A,,Overcast,200,2013-11-22 06:53:00
2:34 AM,39.9,39.0,97,30.27,2.0,Calm,Calm,-,N/A,,Overcast,0,2013-11-22 07:34:00
2:41 AM,39.9,39.0,97,30.26,1.5,SW,4.6,-,N/A,,Overcast,230,2013-11-22 07:41:00
2:53 AM,39.9,39.0,97,30.31,1.0,SW,6.9,-,N/A,,Overcast,220,2013-11-22 07:53:00
3:29 AM,41.0,39.0,93,30.24,-9999.0,SW,8.1,-,N/A,,Overcast,230,2013-11-22 08:29:00
3:53 AM,41.0,39.0,93,30.27,5.0,SW,5.8,-,0.00,Rain,Light Rain,230,2013-11-22 08:53:00
4:35 AM,42.1,39.9,92,30.21,10.0,WSW,9.2,-,0.00,Rain,Light Rain,240,2013-11-22 09:35:00
4:53 AM,42.1,39.9,92,30.25,9.0,SW,6.9,-,0.00,Rain,Light Rain,230,2013-11-22 09:53:00
5:46 AM,43.0,39.9,89,30.18,8.0,WSW,11.5,19.6,0.00,,Overcast,240,2013-11-22 10:46:00
6:25 AM,43.0,39.9,89,30.17,10.0,WSW,11.5,-,0.00,,Overcast,240,2013-11-22 11:25:00
6:53 AM,43.0,39.9,89,30.20,8.0,WSW,9.2,-,0.00,Rain,Light Rain,240,2013-11-22 11:53:00
7:53 AM,43.0,39.9,89,30.19,-9999.0,West,10.4,-,0.00,Rain,Light Rain,260,2013-11-22 12:53:00
8:42 AM,43.0,41.0,93,30.14,4.0,West,9.2,-,0.00,,Overcast,270,2013-11-22 13:42:00
8:53 AM,43.0,41.0,93,30.18,-9999.0,West,9.2,-,0.00,,Overcast,280,2013-11-22 13:53:00
9:53 AM,44.1,42.1,93,30.16,-9999.0,West,11.5,-,N/A,,Overcast,270,2013-11-22 14:53:00
10:53 AM,46.0,43.0,89,30.14,9.0,West,12.7,-,N/A,,Overcast,280,2013-11-22 15:53:00
11:26 AM,46.9,44.1,90,30.09,-9999.0,WNW,15.0,20.7,N/A,,Overcast,290,2013-11-22 16:26:00
11:53 AM,46.9,44.1,90,30.10,10.0,West,13.8,-,N/A,,Overcast,280,2013-11-22 16:53:00
12:44 PM,48.0,44.1,86,30.06,10.0,West,12.7,-,N/A,,Overcast,280,2013-11-22 17:44:00
12:53 PM,48.0,44.1,86,30.08,10.0,West,16.1,23.0,N/A,,Overcast,280,2013-11-22 17:53:00
1:00 PM,46.9,44.1,90,30.05,10.0,West,13.8,23.0,N/A,,Overcast,280,2013-11-22 18:00:00
1:36 PM,48.0,44.1,86,30.03,10.0,West,10.4,-,N/A,,Overcast,280,2013-11-22 18:36:00
1:53 PM,48.0,44.1,86,30.06,10.0,West,10.4,18.4,N/A,,Overcast,270,2013-11-22 18:53:00
2:53 PM,48.0,44.1,86,30.04,-9999.0,West,10.4,-,N/A,,Overcast,280,2013-11-22 19:53:00
3:07 PM,48.0,44.1,86,30.01,10.0,West,11.5,23.0,N/A,,Overcast,280,2013-11-22 20:07:00
3:53 PM,48.0,45.0,89,30.03,10.0,West,15.0,-,N/A,,Overcast,280,2013-11-22 20:53:00
4:15 PM,46.9,45.0,93,29.99,9.0,West,10.4,-,N/A,,Overcast,280,2013-11-22 21:15:00
4:53 PM,48.0,45.0,89,30.00,-9999.0,West,10.4,-,N/A,,Overcast,280,2013-11-22 21:53:00
5:53 PM,46.9,45.0,93,30.00,-9999.0,West,11.5,-,N/A,,Overcast,280,2013-11-22 22:53:00
6:39 PM,48.0,45.0,89,29.95,-9999.0,West,9.2,-,0.00,,Overcast,280,2013-11-22 23:39:00
6:53 PM,48.0,45.0,89,29.98,-9999.0,West,9.2,-,0.00,,Overcast,270,2013-11-22 23:53:00
7:28 PM,48.0,45.0,89,29.95,4.0,West,11.5,-,N/A,,Overcast,270,2013-11-23 00:28:00
7:53 PM,48.0,45.0,89,29.98,-9999.0,West,9.2,-,0.00,Rain,Light Rain,280,2013-11-23 00:53:00
8:53 PM,46.9,45.0,93,29.96,-9999.0,West,11.5,-,0.00,,Overcast,280,2013-11-23 01:53:00
9:53 PM,46.9,45.0,93,29.96,-9999.0,WNW,12.7,-,N/A,,Overcast,290,2013-11-23 02:53:00
10:01 PM,46.9,44.1,90,29.94,10.0,WNW,12.7,24.2,N/A,,Overcast,290,2013-11-23 03:01:00
10:26 PM,46.9,44.1,90,29.94,10.0,NW,10.4,18.4,N/A,,Overcast,310,2013-11-23 03:26:00
10:53 PM,45.0,41.0,86,29.97,-9999.0,NW,17.3,27.6,0.00,Rain,Light Rain,320,2013-11-23 03:53:00
11:20 PM,44.1,41.0,89,29.95,-9999.0,NW,16.1,26.5,0.00,Rain,Light Rain,310,2013-11-23 04:20:00
11:27 PM,44.1,41.0,89,29.95,-9999.0,NW,16.1,21.9,0.00,Rain,Light Rain,310,2013-11-23 04:27:00
11:53 PM,42.1,37.9,85,29.99,-9999.0,NW,19.6,32.2,0.00,Rain,Light Rain,310,2013-11-23 04:53:00